sat.trackr.live / text

‹ back to catalog

STARLINK-3543

NORAD 51716 · 2022-016C

PAYLOAD ACTIVE UNKNOWN

§ Identity

Operator
Country
US
Launch date
2022-02-21
Launch site
AFETR
Launch vehicle
Mass (kg)
RCS (m²)

Purposes: comms

External: N2YO · Heavens-Above · Gunter

§ Orbital elements

Epoch: 2026-05-24T20:28:23.246976Z

Period
95.44 min
Inclination
53.2147°
Eccentricity
0.0001286
Mean motion
15.08835893 rev/d
Perigee alt
538.9 km
Apogee alt
540.6 km
Semi-major
6,917.9 km
B*
2.8092e-5
RAAN
347.2101°
Arg perigee
89.8410°
Mean anomaly
270.2729°
Rev number
23,492

§ Raw data

STARLINK-35431 51716U 22016C   26144.85304684  .00000159  00000+0  28092-4 0  99952 51716  53.2147 347.2101 0001286  89.8410 270.2729 15.08835893234928

JSON: /api/v1/satellites/51716 · /tle

For live sub-satellite position, see the globe view (requires WebGL).

§ Visibility from observer

Set your observer location to see the next 7 days of passes ≥ 10°. The values pass through the URL so the page stays shareable.

No JS? Fill the form by hand. The geolocation button needs JavaScript.